FW3241 Weather Reports


time (UTC)temp
C
wind
direction
speed
KPH
gust
KPH
rain 1hr
cm
rain 24hr
cm
rain mn
cm
humidity
%
barometer
mb
20260507224514 8 42 1.6 3.2 0.00 1.50 0.71 82 1012.8
20260507223016 8 42 1.6 3.2 0.00 1.50 0.71 82 1012.8
20260507221511 8 41 1.6 3.2 0.00 1.50 0.71 82 1012.5
20260507220009 8 41 1.6 4.8 0.00 1.50 0.71 82 1012.1
20260507214507 9 42 1.6 4.8 0.00 1.75 0.71 80 1011.9
20260507213004 10 38 1.6 3.2 0.00 1.75 0.71 78 1011.8
20260507211601 12 36 1.6 4.8 0.00 1.75 0.71 77 1011.3
20260507210104 12 42 1.6 4.8 0.00 1.75 0.71 77 1011.0
20260507204559 12 38 1.6 6.4 0.00 1.83 0.71 77 1010.8
20260507203101 13 46 1.6 4.8 0.00 1.83 0.71 79 1010.9
20260507201619 12 43 1.6 4.8 0.00 1.83 0.71 80 1011.1
20260507200109 12 40 3.2 4.8 0.00 1.83 0.71 78 1011.2
20260507194557 12 40 1.6 4.8 0.00 1.83 0.71 79 1010.9
20260507193055 12 32 1.6 6.4 0.00 1.83 0.71 80 1010.8
20260507191555 13 42 1.6 4.8 0.00 1.83 0.71 79 1010.9
20260507190054 13 43 1.6 3.2 0.00 1.83 0.71 78 1010.9
20260507184554 13 34 1.6 4.8 0.00 1.83 0.71 80 1010.9
20260507183056 13 42 1.6 4.8 0.00 1.83 0.71 81 1011.1
20260507181554 12 17 1.6 4.8 0.00 1.83 0.71 81 1011.3
20260507180052 12 13 1.6 8.0 0.00 1.83 0.71 81 1011.4
20260507174557 12 41 1.6 4.8 0.00 1.83 0.71 81 1011.3
20260507173057 12 27 1.6 6.4 0.00 1.83 0.71 82 1011.3
20260507171559 12 43 1.6 6.4 0.00 1.83 0.71 83 1011.1
20260507170050 12 44 1.6 6.4 0.00 1.83 0.71 84 1011.3
20260507164549 11 37 3.2 6.4 0.00 1.85 0.71 84 1011.0
20260507163047 11 55 3.2 6.4 0.00 1.85 0.71 83 1010.7
20260507161553 12 28 3.2 4.8 0.00 1.85 0.71 84 1010.9
20260507160046 12 320 1.6 4.8 0.00 1.85 0.71 84 1011.2
20260507154547 13 242 1.6 4.8 0.00 2.46 0.71 84 1011.2
20260507153106 13 218 1.6 4.8 0.00 2.46 0.71 83 1011.0
20260507151546 13 215 1.6 4.8 0.00 2.46 0.71 85 1011.0
20260507150050 13 201 0.0 3.2 0.00 2.46 0.71 85 1011.1
20260507144540 13 201 0.0 3.2 0.00 2.77 0.71 85 1010.9
20260507143037 12 201 1.6 4.8 0.00 2.77 0.71 85 1010.8
20260507141536 12 202 0.0 3.2 0.00 2.77 0.71 86 1010.9
20260507140036 12 184 0.0 3.2 0.03 2.77 0.71 86 1011.2
20260507134535 12 184 0.0 1.6 0.03 2.77 0.71 86 1011.0
20260507133035 12 184 0.0 1.6 0.03 2.77 0.71 86 1010.5
20260507131535 11 184 0.0 1.6 0.03 2.77 0.71 85 1011.5
20260507130053 11 184 0.0 0.0 0.00 2.74 0.69 85 1011.1
20260507124532 11 184 0.0 0.0 0.00 2.74 0.69 86 1010.7
20260507123035 11 184 0.0 0.0 0.00 2.74 0.69 85 1011.2
20260507121533 11 184 0.0 1.6 0.03 2.74 0.69 86 1010.7
20260507120037 11 184 0.0 0.0 0.18 2.74 0.69 85 1010.3
20260507114529 11 184 0.0 0.0 0.30 2.74 0.69 85 1010.7
20260507113028 11 184 0.0 1.6 0.43 2.74 0.69 85 1010.7
20260507111528 11 184 0.0 1.6 0.43 2.72 0.66 85 1011.4
20260507110029 11 184 0.0 1.6 0.28 2.57 0.51 85 1011.9
20260507104526 11 184 0.0 0.0 0.15 2.44 0.38 85 1011.5
20260507103028 11 184 0.0 0.0 0.03 2.31 0.25 85 1011.7
20260507101535 11 184 0.0 0.0 0.00 2.29 0.23 85 1010.9
20260507100034 11 184 0.0 1.6 0.00 2.29 0.23 85 1010.7
20260507094523 11 184 0.0 3.2 0.00 2.29 0.23 85 1011.4
20260507093024 11 184 0.0 0.0 0.00 2.29 0.23 85 1010.8
20260507091520 11 184 0.0 1.6 0.00 2.29 0.23 85 1010.4
20260507090019 12 184 0.0 0.0 0.00 2.29 0.23 85 1010.7
20260507084518 12 184 0.0 0.0 0.00 2.29 0.23 85 1010.8
20260507083018 11 184 0.0 0.0 0.00 2.29 0.23 85 1010.9
20260507081519 11 184 0.0 0.0 0.00 2.29 0.23 84 1011.1
20260507080016 11 184 0.0 0.0 0.00 2.29 0.23 85 1011.1
20260507074516 12 184 0.0 3.2 0.00 2.29 0.23 85 1011.4
20260507073015 12 184 0.0 3.2 0.00 2.29 0.23 85 1012.1
20260507071513 12 184 0.0 0.0 0.03 2.29 0.23 85 1011.2
20260507070013 12 184 0.0 0.0 0.03 2.29 0.23 84 1011.1
20260507064512 11 184 0.0 0.0 0.03 2.29 0.23 85 1011.1
20260507063011 11 184 0.0 0.0 0.03 2.29 0.23 85 1011.5
20260507061608 11 184 0.0 0.0 0.00 2.26 0.20 85 1012.0
20260507060017 11 182 0.0 1.6 0.00 2.26 0.20 85 1012.1
20260507054506 11 182 0.0 0.0 0.05 2.26 0.20 84 1012.7
20260507053005 11 182 0.0 0.0 0.15 2.26 0.20 84 1013.3
20260507051506 11 182 0.0 1.6 0.18 2.26 0.20 84 1013.8
20260507050002 11 182 0.0 1.6 0.18 2.24 0.18 84 1013.6
20260507044601 12 182 1.6 3.2 0.15 2.21 0.15 85 1013.9
20260507043102 12 217 0.0 0.0 0.43 2.11 0.05 84 1013.7
20260507041556 12 217 0.0 0.0 0.41 2.08 0.03 85 1014.1
20260507040053 12 218 0.0 3.2 0.38 2.06 0.00 85 1014.0
20260507034555 12 207 0.0 4.8 0.38 2.06 2.06 84 1014.0
20260507033053 12 103 1.6 4.8 0.00 1.68 1.68 85 1013.2
20260507031551 12 103 0.0 0.0 0.00 1.68 1.68 85 1014.0
20260507030052 12 103 1.6 3.2 0.00 1.68 1.68 85 1013.5
20260507024603 12 103 0.0 1.6 0.03 1.68 1.68 85 1014.3
20260507023050 12 103 0.0 0.0 0.05 1.68 1.68 84 1014.2
20260507021549 12 96 0.0 3.2 0.05 1.68 1.68 84 1013.0
20260507020105 12 96 1.6 9.7 0.05 1.68 1.68 85 1012.2
20260507014555 12 98 0.0 6.4 0.08 1.65 1.65 85 1013.8
20260507013049 12 186 0.0 1.6 0.08 1.63 1.63 85 1015.8
20260507011544 12 185 0.0 1.6 0.08 1.63 1.63 85 1014.5
20260507010044 12 190 0.0 1.6 0.10 1.60 1.60 85 1014.3
20260507004545 12 188 0.0 1.6 0.13 1.57 1.57 84 1014.4
20260507003043 12 190 0.0 6.4 0.13 1.55 1.55 84 1013.7
20260507001545 12 189 0.0 3.2 0.15 1.55 1.55 84 1013.4
20260507000041 12 179 0.0 3.2 0.23 1.50 1.50 84 1013.3
20260506234548 13 195 0.0 4.8 0.18 1.42 1.42 84 1012.6
20260506233041 13 171 1.6 3.2 0.15 1.42 1.42 83 1013.3
20260506231549 13 191 0.0 4.8 0.13 1.40 1.40 83 1013.2
20260506230052 13 189 1.6 4.8 0.00 1.27 1.27 83 1014.1